Вернуться в каталог

DELTA 1 R/B

АктивенSSO
NORAD 3346·ROCKET BODY·🇺🇸 United States

Запущен Aug 16, 1968 с Vandenberg Space Force Base

Loading…

Ближайшие Пролёты (ближайшие 24 часа)

TLE

СвежийSource: Space-Track

Эпоха: Sep 14, 2026, 16:46 UTC

1 03346U 68069B   26257.69886887 -.00000047  00000-0 -18781-4 0  9999
2 03346 101.5497 220.4906 0023767 182.7917 349.6730 12.54346832658850

Отслеживайте DELTA 1 R/B в реальном времени с AllMySat

Download on the App Store